When you browse on this site, cookies collect data to enhance your experience and personalize the content and advertising you see.
Visit our Privacy Policy to learn more. By continuing to use the site, you agree to this use of cookies and data.
  • In Spain
  • List of Countries
  • For 7 days
  • Water Temperature
  • Satellite Maps
  • Weather Map
  • Weather Widgets
  • user-avatar
    Login

    Hourly Weather Opatia

    Today, 21 April, Sunday

    Time Temperature Precipitation Wind Pressure Humidity
    00:00 +12°C° 0 mm 2 mps 758 mmHg 65%
    01:00 +12°C° 0 mm 2 mps 758 mmHg 61%
    02:00 +12°C° 0 mm 2 mps 757 mmHg 60%
    03:00 +12°C° 0 mm 2 mps 757 mmHg 59%
    04:00 +10°C° 0 mm 2 mps 757 mmHg 58%
    05:00 +13°C° 0 mm 2 mps 756 mmHg 57%
    06:00 +14°C° 0 mm 2 mps 756 mmHg 56%
    07:00 +15°C° 0 mm 1 mps 756 mmHg 55%
    08:00 +18°C° 0 mm 1 mps 756 mmHg 47%
    09:00 +20°C° 0 mm 2 mps 756 mmHg 39%
    10:00 +23°C° 0 mm 2 mps 755 mmHg 32%
    11:00 +23°C° 0 mm 2 mps 755 mmHg 31%
    12:00 +24°C° 0 mm 2 mps 755 mmHg 30%
    13:00 +24°C° 0 mm 3 mps 755 mmHg 30%
    14:00 +24°C° 0 mm 2 mps 754 mmHg 31%
    15:00 +23°C° 0 mm 2 mps 754 mmHg 33%
    16:00 +21°C° 0 mm 2 mps 753 mmHg 35%
    17:00 +19°C° 0 mm 2 mps 753 mmHg 45%
    18:00 +16°C° 0 mm 1 mps 753 mmHg 55%
    19:00 +14°C° 0 mm 1 mps 753 mmHg 65%
    20:00 +13°C° 0 mm 1 mps 753 mmHg 68%
    21:00 +13°C° 0 mm 1 mps 753 mmHg 70%
    22:00 +12°C° 0 mm 1 mps 754 mmHg 72%
    23:00 +12°C° 0 mm 1 mps 753 mmHg 71%

    Tomorrow, 22 April, Monday

    Time Temperature Precipitation Wind Pressure Humidity
    00:00 +12°C° 0 mm 1 mps 753 mmHg 70%
    01:00 +12°C° 0 mm 1 mps 753 mmHg 68%
    02:00 +11°C° 0 mm 1 mps 753 mmHg 72%
    03:00 +11°C° 0 mm 1 mps 752 mmHg 76%
    04:00 +11°C° 0 mm 1 mps 752 mmHg 80%
    05:00 +12°C° 0 mm 1 mps 752 mmHg 78%
    06:00 +13°C° 0 mm 1 mps 751 mmHg 76%
    07:00 +14°C° 0 mm 1 mps 751 mmHg 73%
    08:00 +16°C° 0 mm 1 mps 750 mmHg 66%
    09:00 +17°C° 0 mm 2 mps 750 mmHg 59%
    10:00 +19°C° 0 mm 2 mps 750 mmHg 52%
    11:00 +19°C° 0 mm 2 mps 749 mmHg 50%
    12:00 +20°C° 0 mm 2 mps 748 mmHg 49%
    13:00 +20°C° 0 mm 3 mps 748 mmHg 47%
    14:00 +20°C° 0 mm 2 mps 747 mmHg 50%
    15:00 +20°C° 0 mm 2 mps 747 mmHg 53%
    16:00 +19°C° 0 mm 2 mps 746 mmHg 56%
    17:00 +19°C° 0 mm 1 mps 746 mmHg 65%
    18:00 +16°C° 0 mm 1 mps 746 mmHg 74%
    19:00 +14°C° 0 mm 1 mps 746 mmHg 83%
    20:00 +14°C° 0 mm 1 mps 746 mmHg 84%
    21:00 +15°C° 0 mm 1 mps 746 mmHg 84%
    22:00 +15°C° 0 mm 1 mps 746 mmHg 85%
    23:00 +14°C° 0.4 mm 1 mps 745 mmHg 87%

    Day after tomorrow, 23 April, Tuesday

    Time Temperature Precipitation Wind Pressure Humidity
    00:00 +14°C° 0.4 mm 1 mps 745 mmHg 90%
    01:00 +14°C° 0.4 mm 1 mps 744 mmHg 92%
    02:00 +14°C° 2.8 mm 2 mps 744 mmHg 94%
    03:00 +13°C° 2.8 mm 2 mps 743 mmHg 95%
    04:00 +13°C° 2.8 mm 2 mps 743 mmHg 96%
    05:00 +12°C° 1.8 mm 3 mps 743 mmHg 96%
    06:00 +12°C° 1.8 mm 3 mps 743 mmHg 96%
    07:00 +12°C° 1.8 mm 4 mps 743 mmHg 97%
    08:00 +13°C° 0.5 mm 4 mps 743 mmHg 96%
    09:00 +14°C° 0.5 mm 5 mps 743 mmHg 96%
    10:00 +14°C° 0.5 mm 6 mps 743 mmHg 95%
    11:00 +14°C° 0.5 mm 5 mps 743 mmHg 95%
    12:00 +15°C° 0.5 mm 5 mps 743 mmHg 95%
    13:00 +15°C° 0.5 mm 5 mps 743 mmHg 96%
    14:00 +15°C° 0.6 mm 4 mps 743 mmHg 96%
    15:00 +15°C° 0.6 mm 4 mps 743 mmHg 97%
    16:00 +16°C° 0.6 mm 3 mps 743 mmHg 97%
    17:00 +16°C° 0.2 mm 3 mps 743 mmHg 97%
    18:00 +16°C° 0.2 mm 2 mps 743 mmHg 98%
    19:00 +16°C° 0.2 mm 1 mps 744 mmHg 98%
    20:00 +15°C° 0.1 mm 2 mps 744 mmHg 97%
    21:00 +15°C° 0.1 mm 2 mps 745 mmHg 96%
    22:00 +15°C° 0.1 mm 2 mps 746 mmHg 95%
    23:00 +15°C° 0.1 mm 2 mps 746 mmHg 95%

    24 April, Wednesday

    Time Temperature Precipitation Wind Pressure Humidity
    00:00 +15°C° 0.1 mm 2 mps 746 mmHg 95%
    01:00 +14°C° 0.1 mm 3 mps 747 mmHg 95%
    02:00 +14°C° 0.3 mm 3 mps 747 mmHg 95%
    03:00 +14°C° 0.3 mm 3 mps 747 mmHg 95%
    04:00 +14°C° 0.3 mm 3 mps 747 mmHg 95%
    05:00 +14°C° 0.2 mm 3 mps 748 mmHg 95%
    06:00 +14°C° 0.2 mm 3 mps 748 mmHg 95%
    07:00 +15°C° 0.2 mm 4 mps 749 mmHg 95%
    08:00 +15°C° 0.2 mm 4 mps 749 mmHg 94%
    09:00 +15°C° 0.2 mm 4 mps 750 mmHg 93%
    10:00 +17°C° 0.2 mm 4 mps 750 mmHg 92%
    11:00 +17°C° 0.3 mm 4 mps 751 mmHg 91%
    12:00 +16°C° 0.3 mm 5 mps 751 mmHg 90%
    13:00 +16°C° 0.3 mm 5 mps 751 mmHg 89%
    14:00 +18°C° 0.1 mm 4 mps 751 mmHg 88%
    15:00 +18°C° 0.1 mm 4 mps 751 mmHg 87%
    16:00 +18°C° 0.1 mm 3 mps 751 mmHg 87%
    17:00 +17°C° 0 mm 3 mps 752 mmHg 90%
    18:00 +16°C° 0 mm 2 mps 752 mmHg 93%
    19:00 +15°C° 0 mm 1 mps 752 mmHg 97%
    20:00 +15°C° 0 mm 1 mps 752 mmHg 97%
    21:00 +14°C° 0 mm 1 mps 753 mmHg 96%
    22:00 +14°C° 0 mm 1 mps 753 mmHg 96%
    23:00 +14°C° 0 mm 1 mps 753 mmHg 96%

    25 April, Thursday

    Time Temperature Precipitation Wind Pressure Humidity
    00:00 +14°C° 0 mm 1 mps 753 mmHg 96%
    01:00 +14°C° 0 mm 2 mps 753 mmHg 95%
    02:00 +14°C° 0 mm 1 mps 753 mmHg 95%
    03:00 +14°C° 0 mm 1 mps 753 mmHg 95%
    04:00 +13°C° 0 mm 1 mps 753 mmHg 94%
    05:00 +14°C° 0 mm 2 mps 753 mmHg 93%
    06:00 +16°C° 0 mm 2 mps 753 mmHg 92%
    07:00 +17°C° 0 mm 2 mps 753 mmHg 91%
    08:00 +17°C° 0 mm 2 mps 754 mmHg 88%
    09:00 +18°C° 0 mm 2 mps 754 mmHg 84%
    10:00 +19°C° 0 mm 2 mps 754 mmHg 81%
    11:00 +20°C° 0 mm 3 mps 754 mmHg 78%
    12:00 +20°C° 0 mm 3 mps 754 mmHg 75%
    13:00 +21°C° 0 mm 3 mps 754 mmHg 72%
    14:00 +21°C° 0 mm 3 mps 753 mmHg 71%
    15:00 +21°C° 0 mm 2 mps 753 mmHg 69%
    16:00 +21°C° 0 mm 2 mps 752 mmHg 68%
    17:00 +20°C° 0 mm 1 mps 752 mmHg 75%
    18:00 +19°C° 0 mm 1 mps 752 mmHg 81%
    19:00 +16°C° 0 mm 1 mps 752 mmHg 88%
    20:00 +16°C° 0 mm 1 mps 752 mmHg 90%
    21:00 +15°C° 0 mm 1 mps 752 mmHg 91%
    22:00 +14°C° 0 mm 1 mps 752 mmHg 93%
    23:00 +14°C° 0 mm 1 mps 752 mmHg 93%

    26 April, Friday

    Time Temperature Precipitation Wind Pressure Humidity
    00:00 +14°C° 0 mm 1 mps 752 mmHg 93%
    01:00 +14°C° 0 mm 1 mps 752 mmHg 93%
    02:00 +14°C° 0 mm 1 mps 752 mmHg 93%
    03:00 +14°C° 0 mm 1 mps 751 mmHg 93%
    04:00 +14°C° 0 mm 1 mps 751 mmHg 94%
    05:00 +15°C° 0 mm 2 mps 751 mmHg 90%
    06:00 +16°C° 0 mm 2 mps 751 mmHg 86%
    07:00 +17°C° 0 mm 3 mps 751 mmHg 82%
    08:00 +17°C° 0 mm 3 mps 751 mmHg 84%
    09:00 +18°C° 0 mm 4 mps 751 mmHg 85%
    10:00 +18°C° 0 mm 4 mps 751 mmHg 86%
    11:00 +18°C° 0.1 mm 4 mps 751 mmHg 88%
    12:00 +18°C° 0.1 mm 4 mps 750 mmHg 89%
    13:00 +18°C° 0.1 mm 3 mps 750 mmHg 91%
    14:00 +18°C° 0.1 mm 3 mps 749 mmHg 90%
    15:00 +18°C° 0.1 mm 3 mps 749 mmHg 89%
    16:00 +18°C° 0.1 mm 3 mps 749 mmHg 88%
    17:00 +17°C° 0 mm 2 mps 749 mmHg 90%
    18:00 +16°C° 0.1 mm 2 mps 749 mmHg 93%
    19:00 +15°C° 0.1 mm 1 mps 749 mmHg 95%
    20:00 +15°C° 0.1 mm 1 mps 750 mmHg 94%
    21:00 +15°C° 0.1 mm 1 mps 750 mmHg 93%
    22:00 +15°C° 0.1 mm 1 mps 751 mmHg 92%
    23:00 +15°C° 0.3 mm 1 mps 751 mmHg 94%
    Show more